Starlink 31041

operational
NORAD ID: 58537 Int'l Des: 2023-192 Owner: SPXS Country: US Constellation: starlink
LEOCIRCULAR

About Starlink 31041

Description loading...

Live Position

Loading 3D Globe...

Upcoming Passes

Altitude History

Altitude vs Time

uPlot chart will show altitude changes over time

Two-Line Element Set

1 58537U 23192G 26036.21288979 -.00001218 00000-0 -28981-4 0 9994
2 58537 53.1589 213.5466 0001652 103.3228 256.7958 15.30201226121010
Epoch: Feb 5, 2026 • Age: 7 hours

Current Status

Altitude 474.8 km
Velocity 7.63 km/s
Sub-Earth Point 16.93°N, 62.39°E
Launch Date Dec 8, 2023
Age 2.1 years
Type internet

Technical Details

Classification Payload
Mass 730.00 kg
Dry Mass 700.00 kg
Total Mass 730.00 kg
Length 0.30 m
Diameter 4.10 m
Span 29.00 m
Shape Box + pan
Manufacturer SPXS
Bus Type Starlink V2M
Phase Status In Orbit
Owner/State SPXS/US

Large Constellations

Loading constellations...